[[{"header":{"parameterUnit":"m.s-1","parameterCategory":1,"la1":30.2991,"la2":30.254,"lo1":-89.0895,"lo2":-89.0444,"dy":0.0017,"dx":0.0017,"nx":28,"ny":28,"refTime":"2024-03-08T09:00:00:Z","depth":0,"parameterNumber":2,"parameterNumberName":"U-component_of_WINDS"},"data":[0,0,0,0,0,0,0,0,0,0,0,0,0,0,0,0,0,0,0,0,0,0,0,0,0,0,0,0,0,0,0,0,0,0,0,0,0,0,0,0,0,0,0,0,0,0,0,0,0,0,0,0,0,0,0,0,0,0,2.275,2.2751,0,2.2829,2.283,2.2831,2.2838,2.2837,2.2836,2.2836,2.2917,2.2919,2.2922,0,0,0,0,0,0,0,0,0,0,0,0,0,2.2605,2.2608,2.275,2.2751,2.2752,2.2829,2.283,2.2831,2.2838,2.2837,2.2836,2.2835,2.2916,2.2919,2.2923,0,0,0,0,0,0,0,0,0,0,0,0,0,2.2674,2.2608,2.2749,2.2764,2.2767,2.2829,2.283,2.2832,2.2838,2.2837,2.2836,2.2835,2.2914,2.2919,2.2923,2.2976,0,0,2.2937,2.2939,0,0,0,0,0,0,0,0,2.267,2.268,2.2761,2.2764,2.2766,2.2822,2.2809,2.288,2.2839,2.2811,2.2836,2.2834,2.2886,2.2893,2.2911,2.298,2.2983,2.2937,2.294,2.2942,2.2943,0,0,0,0,0,0,0,2.2666,2.2676,2.2781,2.2762,2.2765,2.2768,2.2776,2.2822,2.2855,2.2813,2.2814,2.2824,2.2887,2.2906,2.2913,2.2984,2.2937,2.2941,2.2944,2.2945,2.3102,2.3104,0,0,0,0,0,0,2.2658,2.2672,2.2779,2.2783,2.2714,2.2771,2.2781,2.2806,2.2854,2.2861,2.2825,2.2824,2.2899,2.2907,2.2915,2.2981,2.2942,2.2946,2.2948,2.3101,2.3103,2.3104,0,0,0,0,0,0,2.2655,2.2667,2.2775,2.2728,2.2742,2.2775,2.2803,2.2808,2.2827,2.2863,2.2869,2.2838,2.2899,2.2909,2.2961,2.2984,2.2948,2.2952,2.3099,2.3102,2.3104,2.3113,0,0,0,0,0,0,2.2651,2.2666,2.2686,2.2729,2.2745,2.2819,2.2804,2.281,2.2834,2.2834,2.2877,2.2883,2.2899,2.2955,2.2966,2.299,2.2955,2.3097,2.31,2.3103,2.3111,2.3115,2.3119,0,0,0,0,0,2.2645,2.2685,2.2687,2.27,2.277,2.2821,2.283,2.2847,2.2836,2.2857,2.288,2.2881,2.298,2.296,2.2972,2.2998,2.3096,2.3099,2.3103,2.3109,2.3114,2.3119,0,0,0,0,0,0,2.2644,2.2691,2.2693,2.2748,2.278,2.2822,2.2848,2.2852,2.2888,2.2886,2.2907,2.2916,2.2968,2.2988,2.2965,2.3053,2.3037,2.3043,2.3037,2.3043,2.3047,2.3041,2.2959,0,0,0,0,0,2.265,2.2687,2.2726,2.277,2.2787,2.2815,2.2837,2.2848,2.2883,2.2896,2.2923,2.2957,2.2995,2.302,2.3058,2.3114,2.3124,2.3138,2.3142,2.3146,2.315,2.3183,2.319,2.3116,2.3116,2.3116,0,0,2.2662,2.2693,2.2715,2.2771,2.2797,2.2836,2.2826,2.2866,2.2895,2.2902,2.2953,2.2975,2.3013,2.3068,2.3093,2.3086,2.3174,2.315,2.3152,2.3156,2.3188,2.3195,2.3201,2.3118,2.3118,2.3117,0,0,2.2705,2.2731,2.2772,2.2799,2.2839,2.2858,2.2868,2.291,2.2924,2.2976,2.2982,2.3017,2.3083,2.3111,2.3133,2.3189,2.3192,2.3201,2.3223,2.3255,2.3261,2.3266,2.3287,2.3294,2.3206,2.3206,2.3206,0,2.2715,2.2773,2.2792,2.2833,2.2858,2.2867,2.2909,2.2934,2.2985,2.3002,2.2994,2.3078,2.3104,2.3167,2.318,2.3198,2.3211,2.3196,2.3258,2.3264,2.3269,2.3289,2.3297,2.3207,2.3207,2.3207,2.3207,0,2.2785,2.2825,2.2853,2.2902,2.2931,2.2972,2.2997,2.3024,2.3033,2.3053,2.3106,2.3139,2.3184,2.32,2.3208,2.3264,2.3258,2.3254,2.3238,2.3277,2.3296,2.3304,2.3208,2.3208,2.3208,2.3207,0,0,2.2827,2.2888,2.2898,2.2921,2.2967,2.2999,2.3041,2.3086,2.3108,2.3144,2.318,2.3237,2.3234,2.326,2.3272,2.33,2.3343,2.3292,2.3294,2.3301,2.3408,2.3411,2.3419,2.3346,2.3347,2.3349,2.3405,0,2.2875,2.295,2.2969,2.3034,2.3072,2.3082,2.3119,2.3152,2.3172,2.3208,2.3231,2.3271,2.3263,2.3279,2.3307,2.3332,2.3365,2.3328,2.338,2.3382,2.337,2.3429,2.3432,2.3483,2.3412,2.3413,2.3414,0,2.2941,2.2978,2.3047,2.309,2.3106,2.3139,2.3183,2.3216,2.3255,2.3268,2.3298,2.3308,2.3353,2.3336,2.34,2.3374,2.3397,2.3413,2.3415,2.342,2.34,2.3436,2.35,2.3507,2.3426,2.3425,2.3424,0,2.2966,2.3033,2.3083,2.3103,2.3154,2.3177,2.3199,2.3236,2.3263,2.3301,2.3318,2.3361,2.3384,2.3418,2.344,2.3425,2.3502,2.3486,2.3514,2.3514,2.3529,2.3528,2.3598,2.3544,2.3544,2.3544,2.3544,0,2.3017,2.3059,2.3095,2.3126,2.3173,2.3195,2.3242,2.3265,2.3298,2.3334,2.3345,2.3379,2.3406,2.3444,2.3461,2.3512,2.3522,2.3534,2.3538,2.3533,2.3532,2.3548,2.3545,2.3546,2.3545,2.3545,2.3545,0,2.3052,2.3078,2.3134,2.3178,2.3191,2.3224,2.3262,2.3293,2.3314,2.336,2.3372,2.3406,2.3451,2.3476,2.3533,2.3545,2.3601,2.3603,2.3588,2.359,2.3617,2.3614,2.3699,2.3712,2.365,2.365,2.3651,0,2.3084,2.3116,2.3165,2.319,2.3213,2.3253,2.328,2.3304,2.3332,2.3379,2.3404,2.345,2.3488,2.356,2.359,2.3633,2.3637,2.3664,2.3644,2.3638,2.3638,2.3636,2.364,2.3667,2.3668,2.3668,2.3669,0,2.3136,2.3148,2.3187,2.3231,2.3263,2.3299,2.3334,2.3354,2.3384,2.3415,2.3462,2.3491,2.355,2.3595,2.3642,2.3666,2.3673,2.3675,2.3684,2.3679,2.3669,2.3676,2.3598,2.3673,2.3672,2.3672,2.3672,2.3672,2.3171,2.3201,2.324,2.3283,2.3313,2.3346,2.3378,2.3404,2.3443,2.3492,2.3504,2.3554,2.3593,2.3656,2.3682,2.3721,2.3716,2.3729,2.3732,2.3735,2.3736,2.3663,2.373,2.373,2.373,2.373,2.3729,0,2.3225,2.3251,2.3291,2.334,2.3375,2.3379,2.3419,2.3447,2.3491,2.3527,2.3564,2.3619,2.3664,2.3698,2.3744,2.377,2.3774,2.3781,2.3779,2.3785,2.3738,2.3726,2.3777,2.3777,2.3777,2.3777,2.3777,2.3777,2.3257,2.3308,2.3325,2.3391,2.3417,2.3466,2.3488,2.352,2.3549,2.3609,2.3647,2.3669,2.3705,2.3754,2.3796,2.3805,2.3822,2.3829,2.3838,2.3793,2.3788,2.3783,2.3772,2.3832,2.3832,2.3882,2.3883,2.3883]},{"header":{"parameterUnit":"m.s-1","parameterCategory":1,"la1":30.2991,"la2":30.254,"lo1":-89.0895,"lo2":-89.0444,"dy":0.0017,"dx":0.0017,"nx":28,"ny":28,"refTime":"2024-03-08T09:00:00:Z","depth":0,"parameterNumber":3,"parameterNumberName":"V-component_of_WINDS"},"data":[0,0,0,0,0,0,0,0,0,0,0,0,0,0,0,0,0,0,0,0,0,0,0,0,0,0,0,0,0,0,0,0,0,0,0,0,0,0,0,0,0,0,0,0,0,0,0,0,0,0,0,0,0,0,0,0,0,0,-8.1175,-8.1176,0,-8.1325,-8.1327,-8.1328,-8.1263,-8.1259,-8.1255,-8.1252,-8.14,-8.1408,-8.1415,0,0,0,0,0,0,0,0,0,0,0,0,0,-8.0825,-8.0832,-8.1174,-8.1176,-8.1178,-8.1325,-8.1327,-8.1329,-8.1263,-8.1259,-8.1254,-8.125,-8.1398,-8.1407,-8.1416,0,0,0,0,0,0,0,0,0,0,0,0,0,-8.0976,-8.0834,-8.1174,-8.1163,-8.1164,-8.1324,-8.1327,-8.1329,-8.1264,-8.1259,-8.1253,-8.1248,-8.1395,-8.1406,-8.1417,-8.1595,0,0,-8.145,-8.1455,0,0,0,0,0,0,0,0,-8.0968,-8.0989,-8.1163,-8.1164,-8.1165,-8.127,-8.1258,-8.1418,-8.1266,-8.1226,-8.1252,-8.1246,-8.1361,-8.1374,-8.1415,-8.1602,-8.1608,-8.1451,-8.1458,-8.1463,-8.1466,0,0,0,0,0,0,0,-8.0957,-8.0982,-8.1234,-8.1166,-8.1167,-8.1149,-8.1165,-8.1288,-8.1322,-8.1229,-8.1225,-8.1244,-8.136,-8.1404,-8.1418,-8.161,-8.1451,-8.1461,-8.1468,-8.1472,-8.1952,-8.1957,0,0,0,0,0,0,-8.0948,-8.0974,-8.1229,-8.1238,-8.1051,-8.116,-8.1177,-8.1242,-8.1321,-8.1328,-8.1248,-8.124,-8.1388,-8.1405,-8.1423,-8.1637,-8.1463,-8.1473,-8.148,-8.1946,-8.1953,-8.196,0,0,0,0,0,0,-8.094,-8.0971,-8.1223,-8.1105,-8.1136,-8.1172,-8.1245,-8.1247,-8.1291,-8.1335,-8.1341,-8.1287,-8.1384,-8.1407,-8.1553,-8.1641,-8.1478,-8.1488,-8.1938,-8.1948,-8.1956,-8.2067,0,0,0,0,0,0,-8.0931,-8.0969,-8.1038,-8.1107,-8.1142,-8.1353,-8.125,-8.1254,-8.1311,-8.1302,-8.1373,-8.138,-8.1382,-8.1537,-8.1564,-8.1653,-8.1497,-8.1931,-8.1943,-8.1953,-8.2056,-8.2079,-8.2099,0,0,0,0,0,-8.0918,-8.1062,-8.1042,-8.1073,-8.123,-8.1358,-8.1378,-8.1379,-8.1318,-8.1388,-8.1416,-8.1377,-8.1627,-8.1553,-8.1582,-8.1676,-8.1925,-8.1939,-8.1953,-8.2046,-8.2074,-8.2098,0,0,0,0,0,0,-8.1,-8.1071,-8.1049,-8.122,-8.1284,-8.1347,-8.1434,-8.1409,-8.149,-8.1478,-8.1474,-8.1491,-8.1642,-8.1673,-8.1589,-8.1853,-8.1766,-8.1787,-8.1827,-8.1855,-8.1876,-8.1865,-8.1506,0,0,0,0,0,-8.1038,-8.1138,-8.1194,-8.1338,-8.1372,-8.1398,-8.1454,-8.1449,-8.1514,-8.1541,-8.158,-8.1643,-8.1735,-8.1797,-8.1884,-8.206,-8.2074,-8.2139,-8.216,-8.2178,-8.2196,-8.2291,-8.232,-8.2005,-8.2005,-8.2004,0,0,-8.1117,-8.1168,-8.1231,-8.1356,-8.1405,-8.1508,-8.1421,-8.1532,-8.1608,-8.1557,-8.1698,-8.1729,-8.1799,-8.1961,-8.2034,-8.1992,-8.2286,-8.2195,-8.2209,-8.2217,-8.2308,-8.2338,-8.2365,-8.2014,-8.2012,-8.2011,0,0,-8.1314,-8.1363,-8.149,-8.1541,-8.1617,-8.1634,-8.1664,-8.1732,-8.1751,-8.1893,-8.1857,-8.1945,-8.2105,-8.2157,-8.2204,-8.2422,-8.2389,-8.245,-8.2563,-8.2656,-8.268,-8.2702,-8.278,-8.2808,-8.2468,-8.2468,-8.2468,0,-8.1402,-8.1557,-8.1557,-8.1673,-8.1728,-8.1689,-8.1817,-8.1866,-8.1966,-8.2005,-8.1956,-8.2157,-8.2201,-8.2375,-8.2428,-8.2468,-8.2502,-8.2442,-8.2677,-8.2699,-8.272,-8.2794,-8.2823,-8.2475,-8.2474,-8.2473,-8.2473,0,-8.1662,-8.1769,-8.1862,-8.1963,-8.2029,-8.2149,-8.2167,-8.2233,-8.2223,-8.2245,-8.2389,-8.2441,-8.2539,-8.258,-8.257,-8.2753,-8.2724,-8.2677,-8.259,-8.2757,-8.2827,-8.2855,-8.2485,-8.2482,-8.248,-8.2479,0,0,-8.1914,-8.2014,-8.2048,-8.2094,-8.2175,-8.2257,-8.2376,-8.2474,-8.2531,-8.2601,-8.27,-8.2837,-8.2794,-8.2848,-8.2843,-8.2925,-8.3094,-8.2867,-8.2869,-8.2908,-8.3298,-8.3334,-8.3367,-8.3073,-8.3078,-8.3083,-8.3293,0,-8.2117,-8.2328,-8.2332,-8.2524,-8.2623,-8.2588,-8.2691,-8.2751,-8.2774,-8.286,-8.2884,-8.2982,-8.2917,-8.295,-8.3029,-8.3057,-8.3173,-8.3042,-8.3164,-8.3168,-8.3148,-8.3403,-8.3441,-8.3637,-8.332,-8.3324,-8.3328,0,-8.2383,-8.2464,-8.2667,-8.2735,-8.2777,-8.287,-8.296,-8.3044,-8.3111,-8.3121,-8.3183,-8.3166,-8.3285,-8.3195,-8.3359,-8.327,-8.332,-8.3341,-8.3348,-8.336,-8.3258,-8.3422,-8.3699,-8.3729,-8.3371,-8.3367,-8.3364,0,-8.2547,-8.2707,-8.2849,-8.2889,-8.2972,-8.3038,-8.3075,-8.3138,-8.3196,-8.3275,-8.3313,-8.3403,-8.3452,-8.3522,-8.353,-8.3463,-8.3695,-8.3604,-8.3706,-8.3706,-8.3757,-8.3753,-8.4046,-8.3789,-8.3788,-8.3787,-8.3787,0,-8.2774,-8.2899,-8.2925,-8.3012,-8.3152,-8.3154,-8.3292,-8.3323,-8.3379,-8.3471,-8.3444,-8.3531,-8.3536,-8.3624,-8.363,-8.3765,-8.3787,-8.3799,-8.3799,-8.3802,-8.38,-8.3834,-8.3821,-8.3795,-8.3794,-8.3792,-8.3791,0,-8.2981,-8.3003,-8.3156,-8.3223,-8.3242,-8.3342,-8.3398,-8.3481,-8.3502,-8.3618,-8.3646,-8.3677,-8.378,-8.3795,-8.3914,-8.3919,-8.4081,-8.4066,-8.4059,-8.4057,-8.4158,-8.4149,-8.4483,-8.4527,-8.4241,-8.4243,-8.4246,0,-8.3125,-8.3221,-8.3299,-8.336,-8.3401,-8.3499,-8.3559,-8.3565,-8.3629,-8.3714,-8.3786,-8.3887,-8.3967,-8.4133,-8.4165,-8.4256,-8.4244,-8.4355,-8.4257,-8.4257,-8.4246,-8.4241,-8.425,-8.4374,-8.4377,-8.438,-8.4382,0,-8.3377,-8.3384,-8.3473,-8.3568,-8.3641,-8.3715,-8.3784,-8.3835,-8.385,-8.3922,-8.4028,-8.4091,-8.4214,-8.4314,-8.4405,-8.444,-8.4414,-8.4412,-8.4441,-8.4444,-8.4436,-8.4443,-8.4111,-8.4405,-8.4402,-8.4401,-8.4399,-8.4398,-8.3558,-8.3642,-8.371,-8.3811,-8.3864,-8.393,-8.4012,-8.4043,-8.4132,-8.4235,-8.4232,-8.4349,-8.4413,-8.4532,-8.4574,-8.4664,-8.4628,-8.4669,-8.4679,-8.4689,-8.47,-8.4422,-8.468,-8.468,-8.4679,-8.4679,-8.4678,0,-8.3809,-8.3852,-8.3945,-8.4044,-8.4123,-8.4093,-8.4168,-8.4236,-8.434,-8.4403,-8.4484,-8.4605,-8.4702,-8.4743,-8.4837,-8.4901,-8.4891,-8.4926,-8.4921,-8.493,-8.4727,-8.4693,-8.4932,-8.4932,-8.4932,-8.4932,-8.4932,-8.4932,-8.395,-8.4091,-8.4106,-8.4273,-8.4314,-8.4429,-8.4475,-8.4535,-8.4586,-8.4724,-8.4805,-8.4832,-8.4886,-8.4984,-8.5071,-8.508,-8.5116,-8.5157,-8.516,-8.497,-8.4944,-8.492,-8.4888,-8.5164,-8.5165,-8.5356,-8.5358,-8.5359]}]]